CZ-3B DEB, 40849

Orbit data source: Space-Track

CZ-3B DEB, 40849 is space debris in HEO originally from a launch on Mon, 19 Dec 2011 UTC launched from the Xichang Space Center, China (XSC). Debris objects in space refer to the collection of defunct objects orbiting the Earth. Examples of debris include non-operational satellites, rocket bodies, and fragments generated from explosions, collisions, or faulty payload assembly.

Loading next visibility...
CZ-3B DEB details
Identifier
40849, 2011-077AE
Orbit
HEO
Last TLE update1 day ago
Origin
Flag of CNCASC (CN / PRC)
ManufacturerCALT
MissionSpacecraft
Bus & MotorUnknown
MassUnknown
Launch date (UTC)
2011-12-19 (13 years ago)
Launch vehicleUnknown
Launch site
Xichang Space Center, China (XSC)
Object type
Payload
Rocket body
Debris
Shape & HBRUnknown
Radar Cross SectionMedium (>0.1 m² and <1 m²)

Expand to show TLE details & history

TLE from 1 day ago
0 CZ-3B DEB
1 40849U 11077AE  24360.41162836 -.00000102  00000-0 -32010-3 0  9991
2 40849  25.5204 128.1306 7379000 183.5103 164.4697  1.90639296 81611
Epoch: 2024-12-25T09:52Z
Definitive object data (Epoch: 2024-12-25T09:52:44.69Z)
Latitude-0.00002°
Longitude-114.48914°
Altitude41,131.048 km
Speed1.507 km/s
True Right ascension08h 32m 24s
True Declination0° 00' 00"
Sunlit
Object was in daylight at TLE epoch
Visualization TLE readout
Latitude2.18498°
Longitude-110.18942°
Altitude41,344.178 km
Speed1.482 km/s
Apparent Right ascension08h 35m 02s
Apparent Declination-2° 56' 55"
Sunlit
Object is in daylight
Visualization observer readout
Local Sidereal Time11:07:54
Azimuth228.694° WSW
Elevation34.665°
Doppler factor1
Orbital elements
Apogee altitude41,376.046 km
Perigee altitude823.872 km
Semi-major axis27,478.096 km
Eccentricity0.7379
Inclination25.5204°
RAAN128.1306°
Arg. of periapsis183.5103°
True anomaly176.51761°
Mean anomaly164.4697°
Eccentric anomaly171.04831°
Mean motion0.4765 °/min
BSTAR-0.0003201
Orbital period755.51 mins
Loading maneuver chart data...
Loading historical data...
Loading historical data...
Loading historical data...
Loading historical data...
Loading historical data...
Loading historical data...
Loading historical data...

CZ-3B DEB Visibility forecast

Observer location: undefined°, undefined

Span
Click to sort rows by Start time (UTC) header in descending order
Start Az.
Max El. time (UTC)
Max El. Az.
Max El.
End time (UTC)
End Az.
357 mins2024-12-26 11:46:30.513Z228.682° WSW2024-12-26 17:33:30.513Z215.824° SW34.754°2024-12-26 17:43:30.513Z145.942° SSE
245 mins2024-12-27 07:41:30.513Z206.421° SW2024-12-27 10:22:30.513Z218.994° SW26.243°2024-12-27 11:46:30.513Z234.134° WSW
|